Lid_Strength_Index
2 2 2 2 2 2 2 2 2 2 3 3 3 3 3 4 3 4 5 3 5 8 6 4 4 6 6 7 10 8 9 9 9 12 12 12 15 14 15 13 13 14 14 15 16 18 19 10 10 14 10 8 8 8
2 2 2 2 2 2 2 2 2 3 3 3 3 3 4 4 4 4 8 3 2 6 6 3 2 2 3 4 6 6 8 9 7 10 10 11 14 15 13 15 12 14 11 13 12 13 9 9 9 8 7 8 8 7
2 2 2 2 2 2 2 2 3 3 2 3 3 3 4 4 4 4 7 5 4 7 5 5 5 2 1 2 1 7 6 5 6 5 8 9 12 10 14 14 12 11 9 11 11 9 9 8 7 8 8 9 8 8
2 2 2 2 2 2 2 2 3 2 2 3 3 4 4 4 4 4 7 5 5 6 8 7 3 4 2 2 3 3 4 4 4 6 8 9 11 8 11 10 11 9 9 11 11 10 9 8 7 7 8 9 10 9
2 2 2 2 2 2 2 2 3 3 3 3 3 4 4 4 4 5 6 5 3 5 9 7 6 5 3 3 3 4 4 5 6 8 9 11 8 9 9 9 11 9 10 11 11 8 8 8 6 6 8 8 9 10
2 2 2 2 2 2 2 2 3 3 3 3 3 4 4 4 4 7 11 4 2 2 7 11 6 9 6 4 4 5 5 5 6 7 8 8 9 8 11 12 8 7 7 6 8 6 6 6 6 6 7 7 8 9
2 2 2 2 2 2 2 2 3 3 3 3 3 4 4 4 5 9 11 4 0 1 7 9 11 9 7 6 5 5 5 5 6 8 10 9 9 7 10 12 8 7 6 6 5 6 8 7 7 6 7 7 8 9
2 2 2 2 2 2 2 2 3 3 3 3 4 4 4 4 4 7 4 3 2 6 6 11 12 12 7 9 10 6 7 7 7 7 10 9 9 8 12 9 7 7 6 7 6 6 6 8 9 9 10 10 11 10
2 2 2 2 2 2 2 2 3 3 3 4 4 5 8 6 10 8 3 3 4 5 9 12 14 14 7 8 8 8 7 10 9 9 9 8 10 12 9 8 8 7 8 7 9 11 12 12 9 13 13 13 12 11
2 2 2 2 2 2 2 2 3 3 4 5 10 14 16 9 5 6 8 6 6 8 10 11 12 12 9 11 11 9 8 10 12 10 10 10 11 8 7 8 8 9 9 13 14 14 16 15 14 15 17 17 17 15
2 2 2 3 2 2 2 2 2 3 7 13 15 16 12 7 11 12 11 9 8 11 12 13 13 12 9 12 12 10 11 11 14 12 12 12 13 9 8 12 15 16 16 17 16 16 17 17 17 19 20 20 21 21
2 2 3 3 3 2 3 2 2 6 12 11 11 11 13 13 13 13 11 11 12 13 15 15 14 10 10 9 11 11 12 13 15 14 13 15 11 17 18 20 20 20 21 21 21 20 20 21 23 24 24 24 24 23
3 3 3 3 3 3 2 2 3 6 7 12 13 13 16 16 16 14 15 14 15 17 15 14 13 11 11 10 11 12 14 14 15 15 15 13 17 24 25 26 26 27 27 26 25 26 25 25 27 28 26 26 27 26
3 3 3 3 3 3 3 4 5 7 11 15 16 19 18 21 16 15 15 15 14 17 15 13 12 11 11 12 12 13 15 15 17 19 17 11 19 25 28 28 27 27 28 28 27 27 28 29 29 29 28 28 29 28
3 4 4 4 3 4 4 4 6 11 14 16 16 20 21 15 17 17 18 21 17 17 18 13 13 11 12 12 12 16 18 18 17 16 14 18 26 27 28 28 28 29 30 30 29 29 29 29 30 30 29 28 28 28
4 5 9 5 5 5 5 8 12 14 16 18 20 19 20 19 15 17 18 17 17 17 16 14 12 13 12 13 17 17 18 19 15 16 22 26 28 28 29 28 28 29 29 29 29 30 29 31 31 29 29 30 30 29
6 12 6 5 5 6 8 14 14 16 16 21 21 25 23 23 19 20 18 17 18 19 17 13 14 14 15 17 19 19 17 16 21 26 26 27 27 29 30 31 30 29 29 29 30 31 30 30 31 32 32 28 28 28
14 12 5 6 10 11 15 16 17 18 20 23 21 21 26 24 23 23 20 20 20 19 19 17 21 15 16 18 18 19 26 28 27 26 27 28 28 28 28 28 27 27 28 29 30 31 32 33 32 30 30 29 29 29
10 9 6 7 11 15 16 18 20 21 22 28 28 28 27 26 25 24 24 23 21 20 22 21 18 16 19 26 27 28 28 27 27 28 29 31 30 30 30 30 30 30 30 30 29 29 28 29 29 29 28 28 28 26
8 8 8 8 10 14 16 19 22 25 26 25 28 28 26 26 27 26 25 25 23 21 22 21 23 32 35 33 32 30 30 30 30 29 29 29 30 31 31 32 31 31 31 31 30 30 29 30 28 28 28 28 27 26
15 14 12 16 18 17 17 21 23 26 30 28 32 28 28 30 30 30 27 26 24 27 27 33 33 33 33 33 33 31 31 31 31 31 29 29 32 33 33 32 33 33 33 32 32 31 31 30 29 28 28 27 26 25
20 14 21 20 22 24 23 26 25 26 28 30 31 33 34 33 34 33 30 28 33 34 35 34 33 33 32 32 34 35 36 35 35 35 35 36 32 32 32 33 34 33 33 32 31 31 30 29 28 28 29 28 27 26
19 22 27 26 25 27 28 27 26 27 29 30 33 34 35 36 35 33 37 36 35 33 34 34 34 34 35 34 35 35 37 37 35 36 36 36 37 36 36 34 34 35 34 31 30 31 31 29 29 29 28 27 26 25
22 33 36 36 33 31 29 29 27 27 28 29 31 33 34 35 34 35 36 37 36 33 33 34 33 33 33 34 33 33 34 37 36 36 38 38 34 32 33 33 32 32 32 31 31 31 30 30 29 29 28 27 26 25
28 35 37 39 35 33 33 33 32 29 31 30 29 29 30 30 32 37 42 39 36 35 34 33 32 33 34 33 33 33 35 37 36 38 35 38 35 35 32 32 31 30 30 31 31 30 30 30 29 28 28 27 25 24
40 40 39 41 37 37 36 36 35 33 32 31 31 31 30 30 31 36 40 38 36 35 34 34 35 35 33 34 35 33 33 38 39 39 36 37 36 34 35 34 33 30 30 30 29 30 30 30 30 29 28 26 23 23
41 39 37 33 33 31 33 32 32 31 33 35 35 34 32 31 34 37 35 32 34 32 32 32 33 34 34 34 33 33 34 37 39 35 35 36 35 34 33 33 32 29 28 28 28 29 31 30 30 28 27 25 23 22
39 39 39 38 34 34 35 35 35 36 35 32 32 35 35 38 38 33 32 30 31 32 32 32 32 33 33 33 33 33 33 35 37 39 39 36 36 34 33 31 28 24 27 27 28 29 29 27 27 27 26 24 23 22
41 43 41 43 39 35 35 36 35 32 31 31 33 34 34 32 30 31 31 31 30 32 33 34 33 32 32 31 31 31 33 34 34 36 37 36 35 32 31 28 28 28 28 28 27 25 24 23 25 24 24 24 23 23
41 43 40 41 38 37 33 32 32 30 29 29 29 30 31 31 29 28 30 32 33 34 33 33 33 34 34 34 34 33 32 34 34 35 37 36 33 30 29 28 28 28 28 29 28 26 24 24 24 24 25 24 24 23
45 39 35 34 35 32 30 29 29 28 28 30 30 32 33 32 30 29 29 31 31 32 33 33 33 33 34 35 35 37 35 33 32 32 32 32 31 29 27 27 27 28 28 28 27 27 27 27 27 27 27 26 26 26
40 35 33 34 32 29 29 30 30 30 30 31 32 31 32 33 34 31 29 30 31 32 32 32 33 33 32 33 33 33 32 32 32 32 33 30 26 26 26 27 27 27 27 27 27 27 27 28 28 28 28 28 28 27
35 31 31 30 31 31 30 31 31 31 30 32 32 32 33 33 35 31 27 28 30 31 32 31 31 31 32 32 33 32 31 31 32 28 26 23 23 24 26 27 27 26 26 27 28 28 28 28 29 29 29 29 29 29